Погода в Фирсовом

Россия / Забайкальский край     52°18′46″N   118°07′44″E
темп.,
°C
ветер,
м/с
пор.,
м/с
влажн.,
%
обл.,
%
осадки,
мм/ч
давл.,
гПа
погр.,
м
14 апреля, ср
ср1400:00−7ю22402 0.0 101223
03:00−7ю2242100 0.0 101029
06:00−6ю2240100 0.0 100750
09:00−1з1429100 0.0 1006500
12:00+2сз4644100 0.0 10041717
15:00+4ссз5736100 0.1 10042222
18:00+4ссз473793 0.1 10052006
21:00−2с11585 0.1 100810
15 апреля, чт
чт1500:00−4зюз116924 0.0 101010
03:00−5ююз1174100 0.0 101010
06:00−5в0077100 0.0 100910
09:00−1с1156100 0.0 1009327
12:00+4с1237100 0.0 10071733
15:00+5ссз2325100 0.1 10052605
18:00+4с2232100 0.0 10061994
21:00−1ююв2272100 0.4 101073
16 апреля, пт
пт1600:00−3зсз117699 0.0 101010
03:00−5з11776 0.0 101310
06:00−6ссз01816 0.0 101410
09:000с35575 0.0 1015702
12:00+5ссв35335 0.1 10142305
15:00+6с3419100 0.1 10123362
18:00+6ссз341639 0.0 10132932
21:000ююз223112 0.0 101510
17 апреля, сб
сб1700:00−2ююз22393 0.0 101521
03:00−3ю23435 0.0 101533
06:00−3ююз234614 0.0 101440
09:00+4юз373317 0.0 1012619
12:00+10зюз46305 0.0 10091169
15:00+13з582822 0.0 10061628
18:00+12зюз482916 0.0 10051448
21:00+6ю33447 0.0 100646
18 апреля, вс
вс1800:00+4ююз225024 0.0 100728
03:00+3юз2252100 0.0 100713
06:00+2юз115999 0.0 100810
09:00+9зсз133872 0.0 1007360
12:00+13сз343182 0.0 10071589
15:00+14ссз342322 0.0 10072237
18:00+13с2221100 0.0 10072125
21:00+6св263686 0.0 1011129